Location: Unspecified
(0.0000°N, 0.0000°E)
Time: 11:19:38
(UTC+00:00)

Vanguard 3 - Pass Details

Date: 25 November 2019
Orbit: 508 x 3263 km, 33.3° (Epoch: 13 December)

Event Time Altitude Azimuth Distance (km) Brightness Sun altitude
Rises 13:39:20 0° 299° (WNW) 6,639 12.0 55.6°
Reaches altitude 10° 13:46:17 10° 317° (NW) 5,969 11.7 54.2°
Maximum altitude 13:57:46 18° 354° (N) 5,513 11.4 51.9°
Drops below altitude 10° 14:09:19 10° 31° (NNE) 5,973 11.3 49.5°
Sets 14:16:19 0° 49° (NE) 6,642 11.4 48.0°
